User: anonymous   Login
Location: Leeds
(37.2390°N, 113.3580°W)
Time: 17:02:50
(UTC-06:00)
Language:

SL-08 RB Rocket - Orbit

View from above orbital plane
View from above orbital plane
View from above satellite
View from above satellite

Ground track
Ground track

The orbit data is extracted from the following two-line orbital elements,

1 26387U 00033D   15089.39095861  .00001098  00000-0  20013-3 0  9993
2 26387 098.0699 158.5584 0027245 030.1123 020.0655 14.67787213789069
Epoch (UTC): 30 March 2015 09:22:58
Eccentricity: 0.0027245
inclination: 98.0699°
perigee height: 649 km
apogee height: 687 km
right ascension of ascending node: 158.5584°
argument of perigee: 30.1123°
revolutions per day: 14.67787213
mean anomaly at epoch: 20.0655°
orbit number at epoch: 78906

The dashed part of the orbit path shows where the satellite is in the earth's shadow,  

DLR